Time,TemperatureF,DewpointF,PressureIn,WindDirection,WindDirectionDegrees,WindSpeedMPH,WindSpeedGustMPH,Humidity,HourlyPrecipIn,Conditions,Clouds,dailyrainin,SoftwareType,DateUTC
2013-07-29 06:34:00,70.3,69.4,30.03,NNW,338,0.0,0.0,97,0.00,,---,0.00,VWS V14.01,2013-07-29 11:34:00,
2013-07-29 06:35:00,70.3,69.4,30.03,NNW,338,0.0,0.0,97,0.00,,---,0.00,VWS V14.01,2013-07-29 11:35:00,
2013-07-29 06:40:00,70.3,69.4,30.03,NNW,338,0.0,0.0,97,0.00,,---,0.00,VWS V14.01,2013-07-29 11:40:00,
2013-07-29 06:46:00,70.4,69.6,30.03,NNW,338,0.0,0.0,97,0.00,,---,0.00,VWS V14.01,2013-07-29 11:46:00,
2013-07-29 06:51:00,70.4,69.6,30.03,NNW,338,0.0,0.0,97,0.00,,---,0.00,VWS V14.01,2013-07-29 11:51:00,
2013-07-29 06:56:00,70.4,69.6,30.06,NNW,338,0.0,0.0,97,0.00,,---,0.00,VWS V14.01,2013-07-29 11:56:00,
2013-07-29 07:02:00,70.4,69.6,30.06,NNW,338,0.0,0.0,97,0.00,,---,0.00,VWS V14.01,2013-07-29 12:02:00,
2013-07-29 07:07:00,70.4,69.6,30.06,NNW,338,0.0,0.0,97,0.00,,---,0.00,VWS V14.01,2013-07-29 12:07:00,
2013-07-29 07:12:00,70.6,69.7,30.06,NNW,338,0.0,0.0,97,0.00,,---,0.00,VWS V14.01,2013-07-29 12:12:00,
2013-07-29 07:17:00,70.6,69.7,30.06,NNW,338,0.0,0.0,97,0.00,,---,0.00,VWS V14.01,2013-07-29 12:17:00,
2013-07-29 07:22:00,70.8,69.9,30.06,NNW,338,0.0,0.0,97,0.00,,---,0.00,VWS V14.01,2013-07-29 12:22:00,
2013-07-29 07:27:00,71.0,70.1,30.06,NNW,338,0.0,0.0,97,0.00,,---,0.00,VWS V14.01,2013-07-29 12:27:00,
2013-07-29 07:32:00,71.2,70.3,30.06,NNW,338,0.0,0.0,97,0.00,,---,0.00,VWS V14.01,2013-07-29 12:32:00,
2013-07-29 07:37:00,71.2,70.3,30.06,NNW,338,0.0,0.0,97,0.00,,---,0.00,VWS V14.01,2013-07-29 12:37:00,
2013-07-29 07:42:00,71.3,70.4,30.06,NNW,338,0.0,0.0,97,0.00,,---,0.00,VWS V14.01,2013-07-29 12:42:00,
2013-07-29 07:47:00,71.7,70.8,30.06,NNW,338,0.0,0.0,97,0.00,,---,0.00,VWS V14.01,2013-07-29 12:47:00,
2013-07-29 07:52:00,71.9,71.0,30.06,NNW,338,0.0,0.0,97,0.00,,---,0.00,VWS V14.01,2013-07-29 12:52:00,
2013-07-29 07:57:00,72.2,71.3,30.06,NNW,338,0.0,0.0,97,0.00,,---,0.00,VWS V14.01,2013-07-29 12:57:00,
2013-07-29 08:02:00,72.6,71.7,30.06,North,0,0.0,0.0,97,0.00,,---,0.00,VWS V14.01,2013-07-29 13:02:00,
2013-07-29 08:07:00,72.8,71.9,30.06,North,0,0.0,0.0,97,0.00,,---,0.00,VWS V14.01,2013-07-29 13:07:00,
2013-07-29 08:12:00,73.1,72.2,30.06,North,0,0.0,0.0,97,0.00,,---,0.00,VWS V14.01,2013-07-29 13:12:00,
2013-07-29 08:18:00,73.3,72.4,30.06,North,0,0.0,0.0,97,0.00,,---,0.00,VWS V14.01,2013-07-29 13:18:00,
2013-07-29 08:23:00,73.7,72.8,30.06,WNW,292,0.0,0.0,97,0.00,,---,0.00,VWS V14.01,2013-07-29 13:23:00,
2013-07-29 08:28:00,74.2,73.3,30.06,WNW,292,0.0,0.0,97,0.00,,---,0.00,VWS V14.01,2013-07-29 13:28:00,
2013-07-29 08:33:00,74.4,73.2,30.06,WNW,292,0.0,0.0,96,0.00,,---,0.00,VWS V14.01,2013-07-29 13:33:00,
2013-07-29 08:38:00,74.6,73.4,30.06,WNW,292,0.0,0.0,96,0.00,,---,0.00,VWS V14.01,2013-07-29 13:38:00,
2013-07-29 08:43:00,74.9,73.7,30.06,WNW,292,0.0,0.0,96,0.00,,---,0.00,VWS V14.01,2013-07-29 13:43:00,
2013-07-29 08:48:00,75.3,74.1,30.06,WNW,292,0.0,0.0,96,0.00,,---,0.00,VWS V14.01,2013-07-29 13:48:00,
2013-07-29 08:54:00,75.8,74.6,30.06,NW,315,0.0,0.0,96,0.00,,---,0.00,VWS V14.01,2013-07-29 13:54:00,
2013-07-29 08:59:00,76.2,74.7,30.06,NNW,338,0.0,0.0,95,0.00,,---,0.00,VWS V14.01,2013-07-29 13:59:00,
2013-07-29 09:04:00,76.7,75.2,30.06,NW,315,0.0,0.0,95,0.00,,---,0.00,VWS V14.01,2013-07-29 14:04:00,
2013-07-29 09:09:00,77.5,75.3,30.09,NW,315,0.0,0.0,93,0.00,,---,0.00,VWS V14.01,2013-07-29 14:09:00,
2013-07-29 09:14:00,78.0,75.5,30.09,North,0,0.0,0.0,92,0.00,,---,0.00,VWS V14.01,2013-07-29 14:14:00,
2013-07-29 09:19:00,78.4,75.8,30.09,WNW,292,0.0,0.0,92,0.00,,---,0.00,VWS V14.01,2013-07-29 14:19:00,
2013-07-29 09:24:00,79.3,76.1,30.09,WNW,292,0.0,0.0,90,0.00,,---,0.00,VWS V14.01,2013-07-29 14:24:00,
2013-07-29 09:29:00,80.0,76.1,30.09,NNE,22,0.0,0.0,88,0.00,,---,0.00,VWS V14.01,2013-07-29 14:29:00,
2013-07-29 09:34:00,80.5,75.9,30.09,North,0,0.0,0.0,86,0.00,,---,0.00,VWS V14.01,2013-07-29 14:34:00,
2013-07-29 09:39:00,81.1,76.1,30.09,North,0,0.0,0.0,85,0.00,,---,0.00,VWS V14.01,2013-07-29 14:39:00,
2013-07-29 09:44:00,81.2,74.9,30.09,NW,315,0.0,0.0,81,0.00,,---,0.00,VWS V14.01,2013-07-29 14:44:00,
2013-07-29 09:49:00,81.8,75.0,30.09,North,0,0.0,0.0,80,0.00,,---,0.00,VWS V14.01,2013-07-29 14:49:00,
2013-07-29 09:54:00,82.3,75.5,30.09,NE,45,0.0,0.0,80,0.00,,---,0.00,VWS V14.01,2013-07-29 14:54:00,
2013-07-29 10:00:00,82.7,75.1,30.09,NNE,22,0.0,0.0,78,0.00,,---,0.00,VWS V14.01,2013-07-29 15:00:00,
2013-07-29 10:05:00,82.9,74.9,30.09,East,90,0.0,0.0,77,0.00,,---,0.00,VWS V14.01,2013-07-29 15:05:00,
2013-07-29 10:10:00,83.2,74.9,30.09,WSW,248,0.0,0.0,76,0.00,,---,0.00,VWS V14.01,2013-07-29 15:10:00,
2013-07-29 10:16:00,83.4,74.7,30.09,SSE,158,0.0,0.0,75,0.00,,---,0.00,VWS V14.01,2013-07-29 15:16:00,
2013-07-29 10:21:00,83.6,74.8,30.09,NE,45,0.0,1.6,75,0.00,,---,0.00,VWS V14.01,2013-07-29 15:21:00,
2013-07-29 10:26:00,83.9,73.9,30.09,West,270,0.0,0.0,72,0.00,,---,0.00,VWS V14.01,2013-07-29 15:26:00,
2013-07-29 10:31:00,84.1,73.7,30.09,West,270,0.0,0.0,71,0.00,,---,0.00,VWS V14.01,2013-07-29 15:31:00,
2013-07-29 10:36:00,84.1,74.1,30.09,ENE,68,0.0,0.0,72,0.00,,---,0.00,VWS V14.01,2013-07-29 15:36:00,
2013-07-29 10:41:00,84.3,72.6,30.09,NW,315,0.0,0.0,68,0.00,,---,0.00,VWS V14.01,2013-07-29 15:41:00,
2013-07-29 10:46:00,84.8,73.1,30.09,WSW,248,2.5,2.5,68,0.00,,---,0.00,VWS V14.01,2013-07-29 15:46:00,
2013-07-29 10:51:00,85.0,73.3,30.09,North,0,0.0,0.0,68,0.00,,---,0.00,VWS V14.01,2013-07-29 15:51:00,
2013-07-29 10:56:00,85.0,72.4,30.09,NW,315,0.0,0.0,66,0.00,,---,0.00,VWS V14.01,2013-07-29 15:56:00,
2013-07-29 11:01:00,85.2,72.1,30.09,NNW,338,0.0,0.0,65,0.00,,---,0.00,VWS V14.01,2013-07-29 16:01:00,
2013-07-29 11:06:00,85.2,71.7,30.09,West,270,0.0,0.0,64,0.00,,---,0.00,VWS V14.01,2013-07-29 16:06:00,
2013-07-29 11:12:00,85.4,73.2,30.09,ENE,68,0.0,1.3,67,0.00,,---,0.00,VWS V14.01,2013-07-29 16:12:00,
2013-07-29 11:17:00,85.6,72.0,30.09,ENE,68,0.0,0.0,64,0.00,,---,0.00,VWS V14.01,2013-07-29 16:17:00,
2013-07-29 11:22:00,85.4,71.8,30.09,NNW,338,0.0,2.0,64,0.00,,---,0.00,VWS V14.01,2013-07-29 16:22:00,
2013-07-29 11:27:00,85.6,72.5,30.09,SE,135,1.1,1.6,65,0.00,,---,0.00,VWS V14.01,2013-07-29 16:27:00,
2013-07-29 11:32:00,85.7,72.2,30.09,NE,45,0.0,1.6,64,0.00,,---,0.00,VWS V14.01,2013-07-29 16:32:00,
2013-07-29 11:37:00,85.9,72.3,30.09,ENE,68,0.0,0.0,64,0.00,,---,0.00,VWS V14.01,2013-07-29 16:37:00,
2013-07-29 11:42:00,85.9,71.4,30.09,SSW,202,0.0,0.0,62,0.00,,---,0.00,VWS V14.01,2013-07-29 16:42:00,
2013-07-29 11:47:00,86.1,72.0,30.09,ESE,112,0.0,0.0,63,0.00,,---,0.00,VWS V14.01,2013-07-29 16:47:00,
2013-07-29 11:53:00,86.3,73.1,30.09,ESE,112,0.0,2.0,65,0.00,,---,0.00,VWS V14.01,2013-07-29 16:53:00,
2013-07-29 11:58:00,86.1,71.1,30.06,NNE,22,0.0,0.0,61,0.00,,---,0.00,VWS V14.01,2013-07-29 16:58:00,
2013-07-29 12:03:00,86.5,71.9,30.06,NE,45,0.0,1.6,62,0.00,,---,0.00,VWS V14.01,2013-07-29 17:03:00,
2013-07-29 12:08:00,86.6,71.6,30.09,NW,315,0.0,0.0,61,0.00,,---,0.00,VWS V14.01,2013-07-29 17:08:00,
2013-07-29 12:13:00,86.8,70.8,30.09,NNW,338,0.0,1.1,59,0.00,,---,0.00,VWS V14.01,2013-07-29 17:13:00,
2013-07-29 12:18:00,86.8,70.8,30.09,NE,45,0.0,0.9,59,0.00,,---,0.00,VWS V14.01,2013-07-29 17:18:00,
2013-07-29 12:23:00,86.6,70.6,30.06,NW,315,2.5,2.5,59,0.00,,---,0.00,VWS V14.01,2013-07-29 17:23:00,
2013-07-29 12:28:00,87.0,71.4,30.06,ENE,68,0.0,0.0,60,0.00,,---,0.00,VWS V14.01,2013-07-29 17:28:00,
2013-07-29 12:33:00,87.2,72.6,30.06,SE,135,0.0,0.0,62,0.00,,---,0.00,VWS V14.01,2013-07-29 17:33:00,
2013-07-29 12:39:00,87.2,72.6,30.06,ENE,68,0.0,0.9,62,0.00,,---,0.00,VWS V14.01,2013-07-29 17:39:00,
2013-07-29 12:44:00,87.2,72.6,30.06,NW,315,2.0,3.4,62,0.00,,---,0.00,VWS V14.01,2013-07-29 17:44:00,
2013-07-29 12:49:00,87.2,72.6,30.06,NNW,338,0.0,0.0,62,0.00,,---,0.00,VWS V14.01,2013-07-29 17:49:00,
2013-07-29 12:54:00,87.2,72.6,30.06,North,0,0.0,0.0,62,0.00,,---,0.00,VWS V14.01,2013-07-29 17:54:00,
2013-07-29 12:59:00,87.2,72.6,30.06,NE,45,0.0,0.0,62,0.00,,---,0.00,VWS V14.01,2013-07-29 17:59:00,
2013-07-29 13:04:00,87.2,72.6,30.06,NE,45,0.0,0.0,62,0.00,,---,0.00,VWS V14.01,2013-07-29 18:04:00,
2013-07-29 13:10:00,87.2,72.6,30.09,SSE,158,0.0,0.0,62,0.00,,---,0.00,VWS V14.01,2013-07-29 18:10:00,
2013-07-29 13:15:00,87.2,72.6,30.09,ENE,68,0.0,0.0,62,0.00,,---,0.00,VWS V14.01,2013-07-29 18:15:00,
2013-07-29 13:20:00,87.2,72.6,30.09,ENE,68,0.0,0.0,62,0.00,,---,0.00,VWS V14.01,2013-07-29 18:20:00,
2013-07-29 13:25:00,87.2,69.6,30.06,West,270,0.0,0.0,56,0.00,,---,0.00,VWS V14.01,2013-07-29 18:25:00,
2013-07-29 13:30:00,87.4,70.3,30.06,ENE,68,0.0,1.6,57,0.00,,---,0.00,VWS V14.01,2013-07-29 18:30:00,
2013-07-29 13:35:00,87.7,71.1,30.06,ENE,68,0.0,0.0,58,0.00,,---,0.00,VWS V14.01,2013-07-29 18:35:00,
2013-07-29 13:40:00,87.7,71.6,30.06,ENE,68,0.0,0.0,59,0.00,,---,0.00,VWS V14.01,2013-07-29 18:40:00,
2013-07-29 13:45:00,87.7,72.1,30.06,ENE,68,0.0,0.0,60,0.00,,---,0.00,VWS V14.01,2013-07-29 18:45:00,
2013-07-29 13:50:00,87.9,71.8,30.06,ENE,68,0.0,0.0,59,0.00,,---,0.00,VWS V14.01,2013-07-29 18:50:00,
2013-07-29 13:55:00,87.2,71.1,30.06,ENE,68,0.0,0.0,59,0.00,,---,0.00,VWS V14.01,2013-07-29 18:55:00,
2013-07-29 14:00:00,87.5,71.5,30.06,ENE,68,0.0,0.0,59,0.00,,---,0.00,VWS V14.01,2013-07-29 19:00:00,
2013-07-29 14:05:00,87.5,70.4,30.06,ENE,68,0.0,0.0,57,0.00,,---,0.00,VWS V14.01,2013-07-29 19:05:00,
2013-07-29 14:10:00,86.6,70.1,30.06,NW,315,2.2,2.5,58,0.00,,---,0.00,VWS V14.01,2013-07-29 19:10:00,
2013-07-29 14:15:00,87.0,69.9,30.06,WNW,292,2.0,2.0,57,0.00,,---,0.00,VWS V14.01,2013-07-29 19:15:00,
2013-07-29 14:20:00,87.2,70.1,30.06,NE,45,0.0,0.9,57,0.00,,---,0.00,VWS V14.01,2013-07-29 19:20:00,
2013-07-29 14:25:00,87.2,70.6,30.06,NE,45,0.0,0.0,58,0.00,,---,0.00,VWS V14.01,2013-07-29 19:25:00,
2013-07-29 14:31:00,87.2,68.5,30.06,NNW,338,0.0,0.0,54,0.00,,---,0.00,VWS V14.01,2013-07-29 19:31:00,
2013-07-29 14:36:00,87.2,71.1,30.06,NE,45,0.0,0.0,59,0.00,,---,0.00,VWS V14.01,2013-07-29 19:36:00,
2013-07-29 14:42:00,87.2,70.6,30.06,NE,45,0.0,0.0,58,0.00,,---,0.00,VWS V14.01,2013-07-29 19:42:00,
2013-07-29 14:47:00,87.9,69.7,30.06,NE,45,0.0,0.0,55,0.00,,---,0.00,VWS V14.01,2013-07-29 19:47:00,
2013-07-29 14:52:00,88.1,70.9,30.06,ENE,68,0.0,0.0,57,0.00,,---,0.00,VWS V14.01,2013-07-29 19:52:00,
2013-07-29 14:57:00,88.3,72.1,30.06,ENE,68,0.0,0.0,59,0.00,,---,0.00,VWS V14.01,2013-07-29 19:57:00,
2013-07-29 15:02:00,88.6,72.0,30.06,NW,315,0.0,0.0,58,0.00,,---,0.00,VWS V14.01,2013-07-29 20:02:00,
2013-07-29 15:07:00,89.0,71.3,30.06,NW,315,0.0,0.0,56,0.00,,---,0.00,VWS V14.01,2013-07-29 20:07:00,
2013-07-29 15:12:00,89.2,71.9,30.06,ESE,112,0.0,0.9,57,0.00,,---,0.00,VWS V14.01,2013-07-29 20:12:00,
2013-07-29 15:18:00,89.2,73.0,30.06,SSE,158,4.7,4.9,59,0.00,,---,0.00,VWS V14.01,2013-07-29 20:18:00,
2013-07-29 15:23:00,89.2,70.4,30.06,WSW,248,0.0,0.0,54,0.00,,---,0.00,VWS V14.01,2013-07-29 20:23:00,
2013-07-29 15:28:00,89.3,70.0,30.06,NNE,22,0.0,0.0,53,0.00,,---,0.00,VWS V14.01,2013-07-29 20:28:00,
2013-07-29 15:33:00,89.5,71.2,30.06,ENE,68,0.0,0.0,55,0.00,,---,0.00,VWS V14.01,2013-07-29 20:33:00,
2013-07-29 15:38:00,89.5,71.2,30.03,North,0,0.0,0.0,55,0.00,,---,0.00,VWS V14.01,2013-07-29 20:38:00,
2013-07-29 15:43:00,89.2,69.2,30.03,NE,45,0.0,0.0,52,0.00,,---,0.00,VWS V14.01,2013-07-29 20:43:00,
2013-07-29 15:48:00,89.2,69.8,30.03,NE,45,0.0,0.0,53,0.00,,---,0.00,VWS V14.01,2013-07-29 20:48:00,
2013-07-29 15:53:00,89.2,69.8,30.03,NE,45,0.0,0.0,53,0.00,,---,0.00,VWS V14.01,2013-07-29 20:53:00,
2013-07-29 15:58:00,88.8,72.1,30.03,NE,45,0.0,0.0,58,0.00,,---,0.00,VWS V14.01,2013-07-29 20:58:00,
2013-07-29 16:03:00,89.0,70.2,30.03,NE,45,0.0,0.0,54,0.00,,---,0.00,VWS V14.01,2013-07-29 21:03:00,
2013-07-29 16:08:00,89.0,71.3,30.03,ENE,68,0.0,0.0,56,0.00,,---,0.00,VWS V14.01,2013-07-29 21:08:00,
2013-07-29 16:13:00,88.6,71.4,30.03,ENE,68,0.0,0.0,57,0.00,,---,0.00,VWS V14.01,2013-07-29 21:13:00,
2013-07-29 16:19:00,88.6,71.4,30.03,NE,45,0.0,0.0,57,0.00,,---,0.00,VWS V14.01,2013-07-29 21:19:00,
2013-07-29 16:24:00,88.3,72.1,30.03,ENE,68,0.9,1.3,59,0.00,,---,0.00,VWS V14.01,2013-07-29 21:24:00,
2013-07-29 16:29:00,87.9,71.8,30.03,NE,45,0.0,0.0,59,0.00,,---,0.00,VWS V14.01,2013-07-29 21:29:00,
2013-07-29 16:34:00,87.9,71.8,30.03,NE,45,0.0,0.0,59,0.00,,---,0.00,VWS V14.01,2013-07-29 21:34:00,
2013-07-29 16:39:00,87.9,72.3,30.03,NE,45,0.0,0.0,60,0.00,,---,0.00,VWS V14.01,2013-07-29 21:39:00,
2013-07-29 16:44:00,87.9,72.3,30.03,ENE,68,0.0,0.0,60,0.00,,---,0.00,VWS V14.01,2013-07-29 21:44:00,
2013-07-29 16:49:00,87.5,71.9,30.03,ENE,68,1.6,1.6,60,0.00,,---,0.00,VWS V14.01,2013-07-29 21:49:00,
2013-07-29 16:54:00,87.2,72.1,30.06,WSW,248,0.0,0.0,61,0.00,,---,0.00,VWS V14.01,2013-07-29 21:54:00,
2013-07-29 16:59:00,87.4,72.8,30.06,WSW,248,0.0,0.0,62,0.00,,---,0.00,VWS V14.01,2013-07-29 21:59:00,
2013-07-29 17:04:00,87.4,72.8,30.06,ENE,68,0.0,0.0,62,0.00,,---,0.00,VWS V14.01,2013-07-29 22:04:00,
2013-07-29 17:09:00,87.7,73.1,30.03,NE,45,0.0,0.0,62,0.00,,---,0.00,VWS V14.01,2013-07-29 22:09:00,
2013-07-29 17:14:00,87.4,72.8,30.03,ENE,68,0.0,0.0,62,0.00,,---,0.00,VWS V14.01,2013-07-29 22:14:00,
2013-07-29 17:19:00,86.8,72.2,30.03,ENE,68,0.0,0.0,62,0.00,,---,0.00,VWS V14.01,2013-07-29 22:19:00,
2013-07-29 17:24:00,86.1,72.0,30.03,ENE,68,0.0,0.0,63,0.00,,---,0.00,VWS V14.01,2013-07-29 22:24:00,
2013-07-29 17:30:00,85.6,72.0,30.03,NNE,22,0.0,0.0,64,0.00,,---,0.00,VWS V14.01,2013-07-29 22:30:00,
2013-07-29 17:35:00,85.2,72.1,30.03,NNE,22,0.0,0.0,65,0.00,,---,0.00,VWS V14.01,2013-07-29 22:35:00,
2013-07-29 17:40:00,85.0,72.4,30.03,NNE,22,0.0,0.0,66,0.00,,---,0.00,VWS V14.01,2013-07-29 22:40:00,
2013-07-29 17:45:00,85.2,73.0,30.03,NNE,22,0.0,0.0,67,0.00,,---,0.00,VWS V14.01,2013-07-29 22:45:00,
2013-07-29 17:50:00,85.4,73.2,30.03,NNE,22,0.0,0.0,67,0.00,,---,0.00,VWS V14.01,2013-07-29 22:50:00,
2013-07-29 17:55:00,85.4,73.2,30.03,NNE,22,0.0,0.0,67,0.00,,---,0.00,VWS V14.01,2013-07-29 22:55:00,
2013-07-29 18:00:00,85.4,73.6,30.03,NNE,22,0.0,0.0,68,0.00,,---,0.00,VWS V14.01,2013-07-29 23:00:00,
2013-07-29 18:05:00,85.4,74.1,30.03,NNE,22,0.0,0.0,69,0.00,,---,0.00,VWS V14.01,2013-07-29 23:05:00,
2013-07-29 18:10:00,85.2,73.4,30.03,NNE,22,0.0,0.0,68,0.00,,---,0.00,VWS V14.01,2013-07-29 23:10:00,
2013-07-29 18:15:00,85.0,73.3,30.03,NNE,22,0.0,0.0,68,0.00,,---,0.00,VWS V14.01,2013-07-29 23:15:00,
2013-07-29 18:20:00,84.8,73.5,30.03,NNE,22,0.0,0.0,69,0.00,,---,0.00,VWS V14.01,2013-07-29 23:20:00,
2013-07-29 18:25:00,84.8,73.1,30.03,NNE,22,0.0,0.0,68,0.00,,---,0.00,VWS V14.01,2013-07-29 23:25:00,
2013-07-29 18:30:00,84.7,72.9,30.03,NNE,22,0.0,0.0,68,0.00,,---,0.00,VWS V14.01,2013-07-29 23:30:00,
2013-07-29 18:35:00,84.7,73.4,30.03,NNE,22,0.0,0.0,69,0.00,,---,0.00,VWS V14.01,2013-07-29 23:35:00,
2013-07-29 18:40:00,84.7,73.8,30.03,NNE,22,0.0,0.0,70,0.00,,---,0.00,VWS V14.01,2013-07-29 23:40:00,
2013-07-29 18:45:00,84.5,73.6,30.03,NNE,22,0.0,0.0,70,0.00,,---,0.00,VWS V14.01,2013-07-29 23:45:00,
2013-07-29 18:50:00,84.3,73.9,30.03,NNE,22,0.0,0.0,71,0.00,,---,0.00,VWS V14.01,2013-07-29 23:50:00,
2013-07-29 18:55:00,83.9,73.5,30.03,NNE,22,0.0,0.0,71,0.00,,---,0.00,VWS V14.01,2013-07-29 23:55:00,
2013-07-29 19:00:00,83.8,73.8,30.03,NNE,22,0.0,0.0,72,0.00,,---,0.00,VWS V14.01,2013-07-30 00:00:00,
2013-07-29 19:06:00,83.6,73.6,30.03,NNE,22,0.0,0.0,72,0.00,,---,0.00,VWS V14.01,2013-07-30 00:06:00,
2013-07-29 19:11:00,83.4,73.8,30.03,NNE,22,0.0,0.0,73,0.00,,---,0.00,VWS V14.01,2013-07-30 00:11:00,
2013-07-29 19:16:00,83.2,74.1,30.03,NNE,22,0.0,0.0,74,0.00,,---,0.00,VWS V14.01,2013-07-30 00:16:00,
2013-07-29 19:21:00,82.9,73.7,30.03,NNE,22,0.0,0.0,74,0.00,,---,0.00,VWS V14.01,2013-07-30 00:21:00,
2013-07-29 19:26:00,82.7,73.6,30.03,NNE,22,0.0,0.0,74,0.00,,---,0.00,VWS V14.01,2013-07-30 00:26:00,
2013-07-29 19:32:00,82.3,74.0,30.03,NNE,22,0.0,0.0,76,0.00,,---,0.00,VWS V14.01,2013-07-30 00:32:00,
2013-07-29 19:37:00,82.0,73.7,30.03,NNE,22,0.0,0.0,76,0.00,,---,0.00,VWS V14.01,2013-07-30 00:37:00,
2013-07-29 19:42:00,82.0,73.7,30.03,NNE,22,0.0,0.0,76,0.00,,---,0.00,VWS V14.01,2013-07-30 00:42:00,
2013-07-29 19:47:00,81.6,73.7,30.03,NNE,22,0.0,0.0,77,0.00,,---,0.00,VWS V14.01,2013-07-30 00:47:00,
2013-07-29 19:52:00,81.2,73.7,30.03,NNE,22,0.0,0.0,78,0.00,,---,0.00,VWS V14.01,2013-07-30 00:52:00,
2013-07-29 19:57:00,81.1,73.9,30.03,NNE,22,0.0,0.0,79,0.00,,---,0.00,VWS V14.01,2013-07-30 00:57:00,
2013-07-29 20:03:00,80.7,74.0,30.03,NNE,22,0.0,0.0,80,0.00,,---,0.00,VWS V14.01,2013-07-30 01:03:00,
2013-07-29 20:08:00,80.3,73.6,30.03,NNE,22,0.0,0.0,80,0.00,,---,0.00,VWS V14.01,2013-07-30 01:08:00,
2013-07-29 20:13:00,80.2,73.4,30.03,NNE,22,0.0,0.0,80,0.00,,---,0.00,VWS V14.01,2013-07-30 01:13:00,
2013-07-29 20:19:00,79.8,73.4,30.03,NNE,22,0.0,0.0,81,0.00,,---,0.00,VWS V14.01,2013-07-30 01:19:00,
2013-07-29 20:24:00,79.6,74.0,30.03,NNE,22,0.0,0.0,83,0.00,,---,0.00,VWS V14.01,2013-07-30 01:24:00,
2013-07-29 20:29:00,79.6,74.4,30.03,NNE,22,0.0,0.0,84,0.00,,---,0.00,VWS V14.01,2013-07-30 01:29:00,
2013-07-29 20:34:00,79.4,74.2,30.03,NNE,22,0.0,0.0,84,0.00,,---,0.00,VWS V14.01,2013-07-30 01:34:00,
2013-07-29 20:39:00,79.3,74.4,30.03,NNE,22,0.0,0.0,85,0.00,,---,0.00,VWS V14.01,2013-07-30 01:39:00,
2013-07-29 20:44:00,79.1,74.2,30.03,NNE,22,0.0,0.0,85,0.00,,---,0.00,VWS V14.01,2013-07-30 01:44:00,
2013-07-29 20:49:00,78.9,74.4,30.03,NNE,22,0.0,0.0,86,0.00,,---,0.00,VWS V14.01,2013-07-30 01:49:00,
2013-07-29 20:54:00,78.7,74.2,30.03,NNE,22,0.0,0.0,86,0.00,,---,0.00,VWS V14.01,2013-07-30 01:54:00,
2013-07-29 20:59:00,78.5,74.0,30.03,NNE,22,0.0,0.0,86,0.00,,---,0.00,VWS V14.01,2013-07-30 01:59:00,
2013-07-29 21:04:00,78.4,74.2,30.03,NNE,22,0.0,0.0,87,0.00,,---,0.00,VWS V14.01,2013-07-30 02:04:00,
2013-07-29 21:09:00,78.4,74.2,30.03,NNE,22,0.0,0.0,87,0.00,,---,0.00,VWS V14.01,2013-07-30 02:09:00,
2013-07-29 21:14:00,78.4,74.2,30.03,NNE,22,0.0,0.0,87,0.00,,---,0.00,VWS V14.01,2013-07-30 02:14:00,
2013-07-29 21:19:00,78.0,74.2,30.03,NNE,22,0.0,0.0,88,0.00,,---,0.00,VWS V14.01,2013-07-30 02:19:00,
2013-07-29 21:24:00,78.0,74.2,30.06,NNE,22,0.0,0.0,88,0.00,,---,0.00,VWS V14.01,2013-07-30 02:24:00,
2013-07-29 21:29:00,77.8,74.0,30.06,NNE,22,0.0,0.0,88,0.00,,---,0.00,VWS V14.01,2013-07-30 02:29:00,
2013-07-29 21:34:00,77.6,74.1,30.06,NNE,22,0.0,0.0,89,0.00,,---,0.00,VWS V14.01,2013-07-30 02:34:00,
2013-07-29 21:39:00,77.6,74.1,30.06,NNE,22,0.0,0.0,89,0.00,,---,0.00,VWS V14.01,2013-07-30 02:39:00,
2013-07-29 21:44:00,77.5,74.0,30.06,NNE,22,0.0,0.0,89,0.00,,---,0.00,VWS V14.01,2013-07-30 02:44:00,
2013-07-29 21:49:00,77.5,74.0,30.06,North,0,0.0,0.0,89,0.00,,---,0.00,VWS V14.01,2013-07-30 02:49:00,
2013-07-29 21:54:00,77.3,73.8,30.06,North,0,0.0,0.0,89,0.00,,---,0.00,VWS V14.01,2013-07-30 02:54:00,
2013-07-29 21:59:00,77.3,74.1,30.06,North,0,0.0,0.0,90,0.00,,---,0.00,VWS V14.01,2013-07-30 02:59:00,
2013-07-29 22:05:00,77.3,74.1,30.06,North,0,0.0,0.0,90,0.00,,---,0.00,VWS V14.01,2013-07-30 03:05:00,
2013-07-29 22:10:00,77.1,73.9,30.06,North,0,0.0,0.0,90,0.00,,---,0.00,VWS V14.01,2013-07-30 03:10:00,
2013-07-29 22:15:00,77.1,73.9,30.06,North,0,0.0,0.0,90,0.00,,---,0.00,VWS V14.01,2013-07-30 03:15:00,
2013-07-29 22:20:00,76.9,73.8,30.06,North,0,0.0,0.0,90,0.00,,---,0.00,VWS V14.01,2013-07-30 03:20:00,
2013-07-29 22:25:00,76.9,73.8,30.06,NE,45,0.0,0.0,90,0.00,,---,0.00,VWS V14.01,2013-07-30 03:25:00,
2013-07-29 22:30:00,76.7,73.6,30.06,NE,45,0.0,0.0,90,0.00,,---,0.00,VWS V14.01,2013-07-30 03:30:00,
2013-07-29 22:35:00,76.7,73.6,30.06,NE,45,0.0,0.0,90,0.00,,---,0.00,VWS V14.01,2013-07-30 03:35:00,
2013-07-29 22:40:00,76.6,73.4,30.06,NE,45,0.0,0.0,90,0.00,,---,0.00,VWS V14.01,2013-07-30 03:40:00,
2013-07-29 22:45:00,76.6,73.4,30.06,NE,45,0.0,0.0,90,0.00,,---,0.00,VWS V14.01,2013-07-30 03:45:00,
2013-07-29 22:50:00,76.4,73.2,30.06,NE,45,0.0,0.0,90,0.00,,---,0.00,VWS V14.01,2013-07-30 03:50:00,
2013-07-29 22:55:00,76.4,73.2,30.06,NE,45,0.0,0.0,90,0.00,,---,0.00,VWS V14.01,2013-07-30 03:55:00,
2013-07-29 23:00:00,76.4,73.6,30.06,NE,45,0.0,0.0,91,0.00,,---,0.00,VWS V14.01,2013-07-30 04:00:00,
2013-07-29 23:01:00,76.4,73.6,30.06,NE,45,0.0,0.0,91,0.00,,---,0.00,VWS V14.01,2013-07-30 04:01:00,
2013-07-29 23:02:00,76.2,73.4,30.06,NE,45,0.0,0.0,91,0.00,,---,0.00,VWS V14.01,2013-07-30 04:02:00,
2013-07-29 23:07:00,76.2,73.4,30.06,NE,45,0.0,0.0,91,0.00,,---,0.00,VWS V14.01,2013-07-30 04:07:00,
2013-07-29 23:12:00,76.0,73.2,30.06,NE,45,0.0,0.0,91,0.00,,---,0.00,VWS V14.01,2013-07-30 04:12:00,
2013-07-29 23:17:00,76.0,73.2,30.06,NE,45,0.0,0.0,91,0.00,,---,0.00,VWS V14.01,2013-07-30 04:17:00,
2013-07-29 23:22:00,75.8,73.0,30.06,NE,45,0.0,0.0,91,0.00,,---,0.00,VWS V14.01,2013-07-30 04:22:00,
2013-07-29 23:27:00,75.8,73.0,30.06,ESE,112,0.0,0.0,91,0.00,,---,0.00,VWS V14.01,2013-07-30 04:27:00,
2013-07-29 23:32:00,75.7,72.8,30.06,ESE,112,0.0,0.0,91,0.00,,---,0.00,VWS V14.01,2013-07-30 04:32:00,
2013-07-29 23:37:00,75.7,73.2,30.06,ESE,112,0.0,0.0,92,0.00,,---,0.00,VWS V14.01,2013-07-30 04:37:00,
2013-07-29 23:43:00,75.5,73.0,30.06,ESE,112,0.0,0.0,92,0.00,,---,0.00,VWS V14.01,2013-07-30 04:43:00,
2013-07-29 23:48:00,75.5,73.0,30.06,ESE,112,0.0,0.0,92,0.00,,---,0.00,VWS V14.01,2013-07-30 04:48:00,
2013-07-29 23:53:00,75.5,73.0,30.06,ESE,112,0.0,0.0,92,0.00,,---,0.00,VWS V14.01,2013-07-30 04:53:00,
2013-07-29 23:58:00,75.3,72.8,30.09,ESE,112,0.0,0.0,92,0.00,,---,0.00,VWS V14.01,2013-07-30 04:58:00,